Total_Precipitation_Accumulation
0.49 0.43 0.40 0.46 0.47 0.41 0.38 0.45 0.52 0.55 0.55 0.67 0.81 0.92 1.03 1.16 1.35 1.41 1.48 1.63 1.68 1.69 1.81 1.90 1.96 1.91 1.86 1.94 2.14 2.58 2.53 2.19 1.95 1.92 1.78 1.63 1.58 1.63 1.60 1.73 1.80 1.70 1.65
0.40 0.36 0.34 0.36 0.38 0.38 0.37 0.40 0.51 0.60 0.64 0.70 0.84 1.03 1.27 1.35 1.49 1.68 1.69 1.70 1.76 1.81 1.88 2.07 2.18 2.14 2.13 2.21 2.28 2.59 2.79 2.55 2.33 2.33 2.49 2.24 2.02 1.67 1.42 1.47 1.57 1.62 1.66
0.34 0.28 0.30 0.32 0.34 0.36 0.43 0.46 0.58 0.78 0.94 1.02 1.24 1.56 1.83 1.88 1.82 1.85 1.91 1.90 1.93 2.01 1.97 2.03 2.22 2.24 2.23 2.30 2.50 2.82 3.18 3.15 2.84 2.59 2.79 2.55 2.25 2.14 1.63 1.32 1.37 1.51 1.62
0.42 0.33 0.31 0.34 0.32 0.37 0.51 0.69 0.90 1.20 1.41 1.51 1.68 1.94 2.06 2.10 2.02 2.02 2.03 2.06 1.99 1.92 1.93 2.00 2.16 2.34 2.48 2.61 2.66 2.64 3.07 3.42 3.23 3.00 2.61 2.30 2.16 2.32 2.17 1.68 1.37 1.41 1.46
0.46 0.47 0.46 0.51 0.52 0.62 0.83 1.18 1.45 1.65 1.78 1.81 1.88 2.09 2.23 2.39 2.42 2.30 2.15 2.10 2.10 2.04 1.95 1.96 1.99 2.04 2.16 2.33 2.47 2.53 2.78 3.03 3.23 3.21 2.97 2.65 2.44 2.01 2.02 2.09 1.83 1.55 1.33
0.53 0.63 0.76 0.89 0.96 1.05 1.26 1.50 1.64 1.79 1.77 1.74 1.76 1.89 2.08 2.25 2.28 2.32 2.29 2.18 2.12 2.05 1.92 1.84 1.89 1.91 1.92 2.07 2.19 2.31 2.59 2.81 2.96 3.03 2.95 2.84 2.76 2.42 2.14 1.96 1.93 1.78 1.54
0.62 0.84 1.02 1.16 1.25 1.35 1.46 1.51 1.49 1.56 1.58 1.53 1.53 1.60 1.70 1.75 1.81 1.95 1.87 1.75 1.66 1.62 1.59 1.51 1.53 1.66 1.74 1.91 1.99 1.95 2.03 2.24 2.46 2.64 2.69 2.73 2.62 2.53 2.44 2.29 2.07 1.81 1.49
0.90 1.03 1.15 1.26 1.31 1.44 1.50 1.45 1.41 1.39 1.31 1.24 1.26 1.26 1.33 1.42 1.43 1.43 1.40 1.33 1.29 1.27 1.23 1.23 1.23 1.28 1.36 1.57 1.79 1.81 1.83 1.92 2.02 2.09 2.37 2.54 2.50 2.52 2.31 2.20 2.24 2.00 1.67
1.14 1.32 1.33 1.25 1.21 1.26 1.34 1.31 1.26 1.20 1.10 1.02 1.04 1.06 1.13 1.18 1.15 1.09 1.05 1.07 1.00 0.99 0.98 1.03 1.11 1.18 1.17 1.25 1.41 1.61 1.68 1.77 1.85 1.85 2.01 2.16 2.25 2.25 2.09 2.12 2.22 2.12 1.82
1.24 1.52 1.63 1.50 1.27 1.10 1.13 1.09 1.08 1.13 1.12 1.07 1.07 1.04 0.97 0.89 0.86 0.86 0.80 0.81 0.87 0.87 0.89 0.89 0.94 1.02 1.06 1.13 1.24 1.30 1.40 1.51 1.68 1.84 1.97 1.99 2.03 2.10 2.01 2.00 2.11 2.10 1.92
1.45 1.57 1.59 1.46 1.32 1.06 0.99 0.98 0.97 1.03 1.10 1.04 1.06 1.04 0.91 0.78 0.73 0.68 0.63 0.64 0.69 0.73 0.72 0.78 0.88 0.92 0.95 0.98 0.99 1.02 1.08 1.16 1.28 1.35 1.50 1.72 1.90 1.99 1.99 2.04 2.09 2.12 1.99
1.15 1.15 1.23 1.24 1.17 1.05 0.97 1.04 1.09 1.10 1.07 1.02 0.99 0.94 0.87 0.76 0.75 0.69 0.61 0.63 0.67 0.70 0.70 0.76 0.82 0.84 0.90 0.93 0.90 0.90 0.96 1.07 1.16 1.18 1.23 1.35 1.61 1.77 1.87 1.95 1.98 2.05 2.01
0.89 0.83 0.92 1.06 1.00 0.94 0.98 1.08 1.22 1.24 1.17 1.05 0.96 0.93 0.88 0.85 0.88 0.75 0.67 0.66 0.74 0.86 0.88 0.87 0.90 0.86 0.89 0.91 0.88 0.90 0.94 0.97 1.04 1.08 1.10 1.19 1.32 1.48 1.57 1.67 1.78 1.86 1.98
0.74 0.70 0.64 0.70 0.72 0.74 0.76 0.89 1.15 1.38 1.35 1.23 1.09 1.01 0.96 0.95 0.91 0.78 0.71 0.67 0.71 0.75 0.78 0.86 0.93 0.99 1.03 1.02 0.96 0.96 0.97 0.92 0.94 1.01 1.08 1.11 1.13 1.31 1.53 1.64 1.73 1.77 1.88
0.56 0.51 0.46 0.46 0.46 0.52 0.60 0.73 1.03 1.26 1.26 1.23 1.08 0.97 0.91 0.85 0.77 0.74 0.77 0.71 0.64 0.63 0.64 0.74 0.82 0.92 1.01 1.05 1.05 0.92 0.82 0.83 0.88 0.88 0.89 0.98 1.08 1.18 1.38 1.49 1.71 1.76 1.89
0.50 0.48 0.42 0.38 0.35 0.35 0.43 0.54 0.73 0.93 1.01 1.03 0.96 0.83 0.81 0.75 0.66 0.69 0.78 0.78 0.65 0.60 0.60 0.64 0.63 0.66 0.71 0.90 0.90 0.79 0.67 0.70 0.80 0.87 0.88 0.88 0.93 1.00 1.06 1.11 1.34 1.54 1.69
0.50 0.50 0.47 0.43 0.41 0.39 0.40 0.43 0.50 0.63 0.73 0.76 0.73 0.62 0.62 0.72 0.73 0.75 0.75 0.67 0.58 0.60 0.59 0.54 0.50 0.52 0.59 0.66 0.62 0.68 0.67 0.68 0.73 0.81 0.89 0.94 0.92 0.98 1.07 1.08 1.16 1.25 1.31
0.49 0.47 0.45 0.40 0.38 0.37 0.38 0.43 0.45 0.48 0.50 0.50 0.48 0.42 0.49 0.63 0.65 0.61 0.58 0.52 0.51 0.55 0.60 0.53 0.49 0.55 0.57 0.61 0.64 0.66 0.65 0.75 0.83 0.84 0.83 0.94 1.00 1.04 1.20 1.21 1.29 1.23 1.13
0.28 0.29 0.32 0.29 0.26 0.27 0.29 0.31 0.30 0.33 0.32 0.31 0.32 0.36 0.38 0.41 0.40 0.36 0.37 0.43 0.48 0.51 0.47 0.51 0.64 0.64 0.66 0.76 0.70 0.61 0.66 0.78 0.85 0.81 0.83 0.94 1.02 1.20 1.31 1.34 1.35 1.24 1.16
0.14 0.20 0.28 0.30 0.25 0.25 0.28 0.28 0.28 0.30 0.30 0.30 0.31 0.33 0.35 0.39 0.37 0.35 0.35 0.38 0.41 0.46 0.47 0.51 0.64 0.69 0.73 0.75 0.63 0.61 0.70 0.80 0.87 0.86 0.85 1.06 1.05 1.16 1.21 1.27 1.38 1.38 1.27
0.14 0.17 0.22 0.28 0.27 0.26 0.27 0.27 0.27 0.30 0.36 0.37 0.34 0.32 0.32 0.34 0.39 0.41 0.40 0.38 0.38 0.41 0.45 0.49 0.52 0.53 0.52 0.52 0.52 0.55 0.60 0.71 0.82 0.82 0.83 0.79 0.95 0.99 1.09 1.20 1.25 1.48 1.40
0.13 0.15 0.17 0.25 0.28 0.28 0.29 0.31 0.30 0.30 0.36 0.37 0.35 0.34 0.35 0.35 0.38 0.45 0.45 0.42 0.41 0.38 0.39 0.43 0.50 0.51 0.46 0.43 0.43 0.47 0.54 0.67 0.69 0.68 0.75 0.75 0.85 0.89 0.96 0.97 1.15 1.36 1.34
0.14 0.17 0.18 0.22 0.27 0.29 0.32 0.35 0.34 0.34 0.35 0.36 0.38 0.39 0.38 0.38 0.38 0.40 0.42 0.44 0.43 0.43 0.42 0.42 0.47 0.49 0.49 0.50 0.52 0.52 0.56 0.59 0.53 0.50 0.68 0.76 0.84 0.80 0.77 0.92 1.12 1.17 1.20
0.10 0.13 0.15 0.19 0.28 0.32 0.33 0.38 0.39 0.40 0.40 0.42 0.44 0.44 0.45 0.44 0.43 0.44 0.46 0.49 0.51 0.50 0.48 0.47 0.51 0.54 0.54 0.53 0.50 0.50 0.51 0.50 0.49 0.50 0.68 0.83 0.88 0.83 0.79 0.87 1.01 1.05 1.17
0.13 0.13 0.14 0.17 0.22 0.29 0.32 0.37 0.40 0.44 0.44 0.43 0.46 0.49 0.49 0.49 0.50 0.51 0.52 0.52 0.50 0.52 0.50 0.51 0.54 0.53 0.50 0.53 0.57 0.54 0.52 0.52 0.54 0.64 0.79 0.93 0.94 0.96 0.91 0.93 1.02 1.01 1.00
0.14 0.14 0.15 0.16 0.17 0.21 0.24 0.29 0.32 0.39 0.43 0.45 0.44 0.44 0.48 0.50 0.49 0.49 0.50 0.52 0.53 0.55 0.52 0.49 0.51 0.51 0.50 0.53 0.56 0.57 0.59 0.57 0.66 0.83 0.98 1.09 1.17 1.18 1.14 1.10 1.06 0.99 0.96